DW5167 Weather Reports


time (UTC)temp
F
wind
direction
speed
knots
gust
knots
rain 1hr
in
rain 24hr
in
rain mn
in
humidity
%
barometer
mb
20260504151053 78 302 6.1 12.2 0.00 0.00 0.00 56 1018.1
20260504150553 77 11 4.3 14.8 0.00 0.00 0.00 60 1018.0
20260504141051 75 30 5.2 12.2 0.00 0.00 0.00 63 1017.8
20260504140551 75 40 6.1 12.2 0.00 0.00 0.00 62 1017.8
20260504130552 72 53 3.5 8.7 0.00 0.00 0.00 71 1017.6
20260504120106 66 43 0.0 4.3 0.00 0.00 0.00 83 1017.2
20260504110555 62 0 0.0 0.9 0.00 0.00 0.00 88 1016.6
20260504100554 63 0 0.0 5.2 0.00 0.00 0.00 87 1016.3
20260504090105 64 0 0.0 0.9 0.00 0.00 0.00 87 1016.1
20260504081555 65 0 0.0 2.6 0.00 0.00 0.00 85 1016.2
20260504081051 65 22 0.0 2.6 0.00 0.00 0.00 85 1016.3
20260504080551 65 0 0.0 1.7 0.00 0.00 0.00 85 1016.3
20260504050551 67 0 0.0 0.9 0.00 0.00 0.00 80 1017.7
20260504045555 67 0 0.0 0.0 0.00 0.00 0.00 80 1017.8
20260504045051 67 0 0.0 0.0 0.00 0.00 0.00 80 1017.8
20260504044605 67 0 0.0 0.9 0.00 0.00 0.00 80 1017.8
20260504044052 67 0 0.0 0.9 0.00 0.00 0.00 80 1017.9
20260504043552 67 0 0.0 0.0 0.00 0.00 0.00 80 1017.9
20260504043101 67 0 0.0 0.0 0.00 0.00 0.00 79 1017.9
20260504042552 67 0 0.0 0.0 0.00 0.00 0.00 79 1018.0
20260504042052 68 0 0.0 0.9 0.00 0.00 0.00 79 1017.9
20260504041559 68 0 0.0 0.9 0.00 0.00 0.00 79 1018.0
20260504041052 68 31 0.0 2.6 0.00 0.00 0.00 78 1017.9
20260504040551 68 0 0.0 2.6 0.00 0.00 0.00 78 1018.0
20260504040113 68 0 0.0 2.6 0.00 0.00 0.00 78 1018.0
20260504035554 68 0 0.0 0.9 0.00 0.00 0.00 78 1018.0
20260504035051 68 0 0.0 0.9 0.00 0.00 0.00 78 1018.0
20260504034607 68 0 0.0 0.9 0.00 0.00 0.00 77 1018.0
20260504034048 68 0 0.0 0.9 0.00 0.00 0.00 77 1018.0
20260504033553 68 0 0.0 1.7 0.00 0.00 0.00 77 1018.1
20260504033058 69 70 0.0 2.6 0.00 0.00 0.00 77 1018.1
20260504032551 69 0 0.0 2.6 0.00 0.00 0.00 77 1017.9
20260504032051 69 0 0.0 0.9 0.00 0.00 0.00 77 1018.0
20260504031552 69 0 0.0 0.9 0.00 0.00 0.00 77 1018.0
20260504031051 69 0 0.0 0.9 0.00 0.00 0.00 77 1018.0
20260504030550 69 0 0.0 0.0 0.00 0.00 0.00 77 1018.1
20260504030059 69 0 0.0 2.6 0.00 0.00 0.00 77 1018.1
20260504025554 69 0 0.0 2.6 0.00 0.00 0.00 76 1018.1
20260504025051 69 0 0.0 0.9 0.00 0.00 0.00 76 1018.0
20260504024555 69 0 0.0 2.6 0.00 0.00 0.00 76 1018.0
20260504024051 69 0 0.0 3.5 0.00 0.00 0.00 76 1018.0
20260504023551 69 98 0.0 4.3 0.00 0.00 0.00 76 1017.9
20260504023053 69 46 0.9 4.3 0.00 0.00 0.00 76 1017.7
20260504022552 69 73 0.0 2.6 0.00 0.00 0.00 76 1017.7
20260504022052 69 0 0.0 2.6 0.00 0.00 0.00 76 1017.8
20260504021553 69 0 0.0 3.5 0.00 0.00 0.00 76 1017.8
20260504021051 69 0 0.0 4.3 0.00 0.00 0.00 76 1017.7
20260504020553 69 0 0.0 4.3 0.00 0.00 0.00 76 1017.8
20260504020052 69 0 0.9 4.3 0.00 0.00 0.00 76 1017.6
20260504015552 69 71 0.9 4.3 0.00 0.00 0.00 76 1017.5
20260504015052 69 63 0.9 4.3 0.00 0.00 0.00 76 1017.2
20260504014555 69 65 0.9 4.3 0.00 0.00 0.00 76 1017.3
20260504014052 69 0 0.9 4.3 0.00 0.00 0.00 76 1017.3
20260504013551 69 78 0.9 5.2 0.00 0.00 0.00 75 1017.2
20260504013108 70 70 2.6 5.2 0.00 0.00 0.00 75 1017.3
20260504012551 70 97 1.7 5.2 0.00 0.00 0.00 75 1017.3
20260504012051 70 63 1.7 5.2 0.00 0.00 0.00 75 1017.3
20260504011556 70 63 0.9 7.0 0.00 0.00 0.00 74 1017.2
20260504011051 70 0 2.6 7.0 0.00 0.00 0.00 74 1017.3
20260504010552 70 85 0.9 6.1 0.00 0.00 0.00 74 1017.2
20260504010101 70 77 3.5 6.1 0.00 0.00 0.00 74 1017.2
20260504005552 70 0 0.9 5.2 0.00 0.00 0.00 74 1017.2
20260504005052 70 65 2.6 7.0 0.00 0.00 0.00 74 1017.0
20260504004610 70 64 2.6 7.8 0.00 0.00 0.00 74 1016.9
20260504004051 70 72 3.5 8.7 0.00 0.00 0.00 74 1016.9
20260504003551 71 58 2.6 8.7 0.00 0.00 0.00 73 1016.9
20260504003055 71 63 4.3 8.7 0.00 0.00 0.00 73 1016.8
20260504002551 71 62 2.6 7.0 0.00 0.00 0.00 73 1016.7
20260504002051 71 64 3.5 7.0 0.00 0.00 0.00 72 1016.7
20260504001555 71 0 0.9 6.1 0.00 0.00 0.00 72 1016.6
20260504001051 71 0 1.7 7.0 0.00 0.00 0.00 72 1016.6
20260504000551 72 110 3.5 9.6 0.00 0.00 0.00 71 1016.6
20260504000114 72 71 2.6 9.6 0.00 0.00 0.00 71 1016.4
20260503235551 72 80 3.5 7.0 0.00 0.00 0.00 71 1016.3
20260503235051 72 71 3.5 9.6 0.00 0.00 0.00 71 1016.2
20260503234554 72 91 4.3 9.6 0.00 0.00 0.00 71 1016.2
20260503234052 72 86 1.7 8.7 0.00 0.00 0.00 70 1016.2
20260503233552 73 68 3.5 10.4 0.00 0.00 0.00 70 1016.3
20260503233055 73 75 2.6 10.4 0.00 0.00 0.00 69 1016.1
20260503232553 73 68 4.3 7.8 0.00 0.00 0.00 69 1016.2
20260503232051 73 69 4.3 7.8 0.00 0.00 0.00 69 1016.2
20260503231554 73 98 1.7 7.0 0.00 0.00 0.00 69 1016.0
20260503231052 74 59 2.6 8.7 0.00 0.00 0.00 68 1016.1
20260503230551 74 34 3.5 8.7 0.00 0.00 0.00 68 1016.1
20260503230056 74 75 4.3 8.7 0.00 0.00 0.00 67 1016.2
20260503225551 74 44 5.2 11.3 0.00 0.00 0.00 68 1016.1
20260503225051 74 89 4.3 11.3 0.00 0.00 0.00 67 1016.1
20260503224555 74 89 5.2 10.4 0.00 0.00 0.00 67 1016.0
20260503224051 75 75 6.1 10.4 0.00 0.00 0.00 66 1016.2
20260503223551 75 10 4.3 7.8 0.00 0.00 0.00 66 1016.1
20260503223054 76 76 3.5 10.4 0.00 0.00 0.00 66 1016.0
20260503222552 76 79 4.3 10.4 0.00 0.00 0.00 66 1016.0
20260503222051 76 63 4.3 10.4 0.00 0.00 0.00 66 1016.0
20260503221559 76 90 3.5 10.4 0.00 0.00 0.00 66 1016.0
20260503221052 76 58 5.2 10.4 0.00 0.00 0.00 65 1016.0
20260503220552 76 109 5.2 9.6 0.00 0.00 0.00 66 1015.9
20260503220109 76 68 4.3 7.8 0.00 0.00 0.00 65 1016.0
20260503215551 77 101 2.6 6.1 0.00 0.00 0.00 65 1016.0
20260503215051 76 94 2.6 9.6 0.00 0.00 0.00 66 1015.9
20260503214555 76 75 3.5 9.6 0.00 0.00 0.00 66 1016.0
20260503214052 76 49 3.5 8.7 0.00 0.00 0.00 66 1015.9
20260503213551 76 74 4.3 8.7 0.00 0.00 0.00 64 1015.9
20260503213100 76 117 3.5 8.7 0.00 0.00 0.00 65 1016.0
20260503212551 76 60 3.5 8.7 0.00 0.00 0.00 64 1016.0
20260503212052 76 68 0.9 7.8 0.00 0.00 0.00 63 1016.0
20260503211556 76 83 2.6 7.8 0.00 0.00 0.00 63 1015.9
20260503211052 77 113 4.3 7.8 0.00 0.00 0.00 62 1016.0
20260503210552 78 58 4.3 7.8 0.00 0.00 0.00 62 1016.0
20260503210053 77 70 0.0 7.0 0.00 0.00 0.00 62 1016.1
20260503205552 76 105 1.7 7.0 0.00 0.00 0.00 62 1016.0
20260503205052 77 68 4.3 8.7 0.00 0.00 0.00 62 1016.0
20260503204554 77 104 5.2 8.7 0.00 0.00 0.00 62 1015.9
20260503204051 78 48 1.7 7.8 0.00 0.00 0.00 61 1016.0
20260503203551 77 73 0.9 7.8 0.00 0.00 0.00 62 1016.0
20260503203059 77 20 3.5 8.7 0.00 0.00 0.00 61 1016.2
20260503202553 77 28 4.3 8.7 0.00 0.00 0.00 61 1016.2
20260503202051 78 41 2.6 7.8 0.00 0.00 0.00 62 1016.1
20260503201555 78 60 3.5 7.8 0.00 0.00 0.00 62 1016.1
20260503201056 77 41 1.7 7.0 0.00 0.00 0.00 63 1016.1
20260503200551 76 36 2.6 7.0 0.00 0.00 0.00 62 1016.3
20260503200101 77 61 2.6 8.7 0.00 0.00 0.00 62 1016.5
20260503195551 78 27 4.3 8.7 0.00 0.00 0.00 60 1016.6
20260503195051 78 77 2.6 8.7 0.00 0.00 0.00 60 1016.5
20260503194556 77 20 1.7 7.0 0.00 0.00 0.00 62 1016.6
20260503194052 77 3 3.5 7.0 0.00 0.00 0.00 62 1016.8
20260503193552 78 32 1.7 7.0 0.00 0.00 0.00 61 1016.8
20260503193056 78 32 1.7 7.8 0.00 0.00 0.00 61 1016.9
20260503192551 77 0 3.5 7.8 0.00 0.00 0.00 61 1016.9
20260503192051 77 335 2.6 11.3 0.00 0.00 0.00 61 1017.1
20260503191556 77 49 3.5 11.3 0.00 0.00 0.00 61 1017.2
20260503191051 77 134 2.6 11.3 0.00 0.00 0.00 63 1017.2
20260503190552 77 0 1.7 9.6 0.00 0.00 0.00 64 1017.4
20260503190056 76 58 4.3 9.6 0.00 0.00 0.00 63 1017.4
20260503185551 77 89 3.5 9.6 0.00 0.00 0.00 63 1017.4
20260503185055 77 66 4.3 9.6 0.00 0.00 0.00 64 1017.5
20260503184604 77 20 3.5 11.3 0.00 0.00 0.00 64 1017.5
20260503184051 78 54 3.5 11.3 0.00 0.00 0.00 62 1017.7
20260503183553 77 65 2.6 8.7 0.00 0.00 0.00 64 1017.6
20260503183058 77 1 3.5 11.3 0.00 0.00 0.00 65 1017.7
20260503182554 77 42 4.3 11.3 0.00 0.00 0.00 65 1017.9
20260503182051 76 343 4.3 8.7 0.00 0.00 0.00 67 1017.9
20260503181602 76 81 3.5 8.7 0.00 0.00 0.00 65 1017.9
20260503181052 76 86 3.5 8.7 0.00 0.00 0.00 65 1018.0
20260503180552 76 70 2.6 8.7 0.00 0.00 0.00 69 1018.1
20260503180116 75 84 3.5 8.7 0.00 0.00 0.00 69 1018.2
20260503175551 75 65 2.6 7.0 0.00 0.00 0.00 69 1018.3
20260503175051 74 71 2.6 8.7 0.00 0.00 0.00 68 1018.3
20260503174556 74 349 4.3 10.4 0.00 0.00 0.00 69 1018.4
20260503174055 75 71 4.3 10.4 0.00 0.00 0.00 68 1018.3
20260503173551 75 15 5.2 9.6 0.00 0.00 0.00 69 1018.3
20260503173114 74 146 5.2 9.6 0.00 0.00 0.00 70 1018.3
20260503172552 74 21 3.5 10.4 0.00 0.00 0.00 71 1018.4
20260503172052 74 46 3.5 10.4 0.00 0.00 0.00 71 1018.4
20260503171604 74 108 5.2 9.6 0.00 0.00 0.00 72 1018.4
20260503171052 73 89 4.3 10.4 0.00 0.00 0.00 72 1018.5
20260503170552 73 25 4.3 10.4 0.00 0.00 0.00 72 1018.6
20260503170110 73 51 2.6 7.8 0.00 0.00 0.00 73 1018.6